{"data":{"norad_id":68391,"intl_designator":"2026-063M","name":"STARLINK-37216","alt_names":[],"object_type":"PAYLOAD","status":"ACTIVE","operator":null,"country":"US","launch_date":"2026-03-26","launch_site_code":"AFWTR","launch_vehicle":null,"mission":null,"orbit_class":"UNKNOWN","rcs_meters":null,"size_class":null,"mass_kg":null,"dimensions":null,"purposes":["comms"],"wikipedia_slug":null,"has_3d_model":false,"image_url":null,"decayed_at":null,"tle_current":{"epoch":"2026-05-24T23:22:44.061312Z","epoch_age_seconds":87804,"freshness":"FRESH","line1":"1 68391U 26063M   26144.97412108  .00018878  00000+0  58549-3 0  9998","line2":"2 68391  97.2851 287.5048 0001496  83.9092 276.2321 15.33451296  9580","mean_motion":15.33451296,"eccentricity":0.0001496,"inclination_deg":97.2851,"raan_deg":287.5048,"arg_perigee_deg":83.9092,"mean_anomaly_deg":276.2321,"bstar":0.00058549,"rev_number":958,"period_min":93.905819099454,"perigee_km":464.5006303241,"apogee_km":466.54825382757,"semimajor_km":6843.6614420758,"source":"CELESTRAK","updated_at":"2026-05-25T13:38:21.930450Z"}}}